This is the latest recevied weather packets stored in our database for station/object OK2PAT-12. If no packets are shown the sender has not sent any weather packets the latest 1 day(s).
| Time | Temp. | Humidity | Pressure | Rain* | Wind** | Luminosity | Snow |
|---|---|---|---|---|---|---|---|
| 1778056019 | 20° C | 54% | 1008.5 hPa | - | - | - | - |
| 1778050018 | 18.89° C | 56% | 1008.2 hPa | - | - | - | - |
| 1778047618 | 18.33° C | 57% | 1008.2 hPa | - | - | - | - |
| 1778045818 | 17.78° C | 58% | 1007.9 hPa | - | - | - | - |
| 1778045218 | 17.22° C | 58% | 1007.8 hPa | - | - | - | - |
| 1778044618 | 17.22° C | 59% | 1007.8 hPa | - | - | - | - |
| 1778044018 | 16.67° C | 59% | 1007.8 hPa | - | - | - | - |
| 1778042818 | 16.11° C | 61% | 1007.7 hPa | - | - | - | - |
| 1778041018 | 15° C | 63% | 1007.5 hPa | - | - | - | - |
| 1778039218 | 14.44° C | 63% | 1007.3 hPa | - | - | - | - |
| 1778038018 | 14.44° C | 64% | 1007.2 hPa | - | - | - | - |
| 1778037418 | 14.44° C | 63% | 1007.1 hPa | - | - | - | - |
| 1778036818 | 14.44° C | 63% | 1007.1 hPa | - | - | - | - |
| 1778035618 | 14.44° C | 62% | 1007.1 hPa | - | - | - | - |
| 1778035018 | 14.44° C | 62% | 1007.1 hPa | - | - | - | - |
| 1778034418 | 14.44° C | 61% | 1007.2 hPa | - | - | - | - |
| 1778033818 | 15° C | 61% | 1007.2 hPa | - | - | - | - |
| 1778033218 | 15° C | 60% | 1007.2 hPa | - | - | - | - |
| 1778032618 | 15° C | 60% | 1007.2 hPa | - | - | - | - |
| 1778032018 | 15° C | 60% | 1007.2 hPa | - | - | - | - |
| 1778031418 | 15° C | 59% | 1007.2 hPa | - | - | - | - |
| 1778030818 | 15° C | 59% | 1007.2 hPa | - | - | - | - |
| 1778030218 | 15° C | 58% | 1007.3 hPa | - | - | - | - |
| 1778029618 | 15° C | 58% | 1007.2 hPa | - | - | - | - |
| 1778029018 | 15° C | 58% | 1007 hPa | - | - | - | - |
* Rain since midnight (hover to see other rain measurements)
** Current wind speed in m/s (hover to see current wind gust speed)